| time (UTC) | temp F | wind direction | speed knots | gust knots | rain 1hr in | rain 24hr in | rain mn in | humidity % | barometer mb |
| 20260503214937 | 49 | 140 | 0.9 | 1.7 | 0.00 | 0.00 | 0.00 | 86 | 1029.5 |
| 20260503214434 | 49 | 105 | 0.9 | 1.7 | 0.00 | 0.00 | 0.00 | 86 | 1029.4 |
| 20260503213931 | 50 | 102 | 1.7 | 2.6 | 0.00 | 0.00 | 0.00 | 86 | 1029.4 |
| 20260503213430 | 50 | 101 | 2.6 | 3.5 | 0.00 | 0.00 | 0.00 | 85 | 1029.3 |
| 20260503212925 | 50 | 106 | 2.6 | 4.3 | 0.00 | 0.00 | 0.00 | 85 | 1029.2 |
| 20260503212423 | 50 | 114 | 3.5 | 5.2 | 0.00 | 0.00 | 0.00 | 85 | 1029.1 |
| 20260503211920 | 50 | 111 | 3.5 | 4.3 | 0.00 | 0.00 | 0.00 | 85 | 1029.1 |
| 20260503211417 | 50 | 104 | 3.5 | 4.3 | 0.00 | 0.00 | 0.00 | 84 | 1029.3 |
| 20260503210912 | 50 | 108 | 2.6 | 4.3 | 0.00 | 0.00 | 0.00 | 84 | 1029.1 |
| 20260503210410 | 51 | 112 | 4.3 | 5.2 | 0.00 | 0.00 | 0.00 | 84 | 1029.2 |
| 20260503205904 | 51 | 108 | 4.3 | 6.1 | 0.00 | 0.00 | 0.00 | 84 | 1029.2 |
| 20260503205402 | 51 | 121 | 3.5 | 5.2 | 0.00 | 0.00 | 0.00 | 83 | 1029.2 |
| 20260503204858 | 51 | 98 | 2.6 | 4.3 | 0.00 | 0.00 | 0.00 | 83 | 1029.0 |
| 20260503204355 | 51 | 114 | 4.3 | 5.2 | 0.00 | 0.00 | 0.00 | 83 | 1029.2 |
| 20260503203852 | 52 | 104 | 3.5 | 5.2 | 0.00 | 0.00 | 0.00 | 83 | 1029.1 |
| 20260503203350 | 52 | 112 | 3.5 | 5.2 | 0.00 | 0.00 | 0.00 | 82 | 1028.9 |
| 20260503202846 | 52 | 101 | 3.5 | 6.1 | 0.00 | 0.00 | 0.00 | 82 | 1028.9 |
| 20260503202345 | 52 | 119 | 4.3 | 7.0 | 0.00 | 0.00 | 0.00 | 82 | 1029.0 |
| 20260503201843 | 52 | 130 | 4.3 | 7.8 | 0.00 | 0.00 | 0.00 | 82 | 1028.9 |
| 20260503201339 | 52 | 133 | 5.2 | 7.8 | 0.00 | 0.00 | 0.00 | 82 | 1028.8 |
| 20260503200837 | 52 | 124 | 6.1 | 7.0 | 0.00 | 0.00 | 0.00 | 82 | 1028.8 |
| 20260503200332 | 52 | 120 | 4.3 | 6.1 | 0.00 | 0.00 | 0.00 | 82 | 1028.9 |
| 20260503195830 | 52 | 116 | 4.3 | 6.1 | 0.00 | 0.00 | 0.00 | 82 | 1029.0 |
| 20260503195326 | 52 | 124 | 4.3 | 7.0 | 0.00 | 0.00 | 0.00 | 82 | 1028.9 |
| 20260503194824 | 52 | 125 | 4.3 | 4.3 | 0.00 | 0.00 | 0.00 | 82 | 1029.1 |
| 20260503194319 | 52 | 130 | 3.5 | 4.3 | 0.00 | 0.00 | 0.00 | 82 | 1029.3 |
| 20260503193816 | 52 | 128 | 4.3 | 7.0 | 0.00 | 0.00 | 0.00 | 82 | 1029.0 |
| 20260503193312 | 52 | 134 | 4.3 | 6.1 | 0.00 | 0.00 | 0.00 | 82 | 1029.2 |
| 20260503192808 | 52 | 121 | 4.3 | 5.2 | 0.00 | 0.00 | 0.00 | 82 | 1029.3 |
| 20260503192305 | 52 | 125 | 3.5 | 5.2 | 0.00 | 0.00 | 0.00 | 83 | 1029.2 |
| 20260503191800 | 51 | 138 | 4.3 | 4.3 | 0.00 | 0.00 | 0.00 | 83 | 1029.2 |
| 20260503191257 | 51 | 129 | 1.7 | 4.3 | 0.00 | 0.00 | 0.00 | 82 | 1029.5 |
| 20260503190754 | 52 | 132 | 1.7 | 2.6 | 0.00 | 0.00 | 0.00 | 82 | 1029.2 |
| 20260503190251 | 52 | 115 | 2.6 | 3.5 | 0.00 | 0.00 | 0.00 | 83 | 1029.3 |
| 20260503185748 | 51 | 128 | 3.5 | 4.3 | 0.00 | 0.00 | 0.00 | 83 | 1029.4 |
| 20260503185243 | 51 | 118 | 3.5 | 4.3 | 0.00 | 0.00 | 0.00 | 84 | 1029.2 |
| 20260503184738 | 50 | 134 | 2.6 | 3.5 | 0.00 | 0.00 | 0.00 | 83 | 1029.2 |
| 20260503184235 | 50 | 148 | 2.6 | 4.3 | 0.00 | 0.00 | 0.00 | 83 | 1029.2 |
| 20260503183731 | 50 | 141 | 3.5 | 3.5 | 0.00 | 0.00 | 0.00 | 81 | 1029.0 |
| 20260503183229 | 51 | 139 | 0.9 | 1.7 | 0.00 | 0.00 | 0.00 | 80 | 1029.1 |
| 20260503182726 | 52 | 164 | 1.7 | 1.7 | 0.00 | 0.00 | 0.00 | 80 | 1029.1 |
| 20260503182225 | 52 | 117 | 3.5 | 4.3 | 0.00 | 0.00 | 0.00 | 81 | 1029.2 |
| 20260503181721 | 52 | 107 | 4.3 | 4.3 | 0.00 | 0.00 | 0.00 | 81 | 1029.1 |
| 20260503181218 | 52 | 99 | 3.5 | 4.3 | 0.00 | 0.00 | 0.00 | 81 | 1029.0 |
| 20260503180714 | 52 | 114 | 4.3 | 5.2 | 0.00 | 0.00 | 0.00 | 81 | 1029.1 |
| 20260503180213 | 52 | 116 | 3.5 | 5.2 | 0.00 | 0.00 | 0.00 | 81 | 1029.2 |
| 20260503175710 | 52 | 119 | 3.5 | 5.2 | 0.00 | 0.00 | 0.00 | 81 | 1029.0 |
| 20260503175208 | 53 | 117 | 4.3 | 5.2 | 0.00 | 0.00 | 0.00 | 81 | 1029.3 |
| 20260503174703 | 53 | 100 | 4.3 | 6.1 | 0.00 | 0.00 | 0.00 | 81 | 1029.1 |
| 20260503174201 | 52 | 118 | 4.3 | 7.0 | 0.00 | 0.00 | 0.00 | 82 | 1029.0 |
| 20260503173656 | 51 | 127 | 7.0 | 7.0 | 0.00 | 0.00 | 0.00 | 81 | 1029.0 |
| 20260503173152 | 52 | 126 | 2.6 | 3.5 | 0.00 | 0.00 | 0.00 | 81 | 1029.0 |
| 20260503172649 | 52 | 97 | 2.6 | 3.5 | 0.00 | 0.00 | 0.00 | 81 | 1028.8 |
| 20260503172147 | 52 | 102 | 3.5 | 4.3 | 0.00 | 0.00 | 0.00 | 81 | 1029.0 |
| 20260503171643 | 52 | 85 | 2.6 | 3.5 | 0.00 | 0.00 | 0.00 | 80 | 1029.0 |
| 20260503171140 | 53 | 107 | 3.5 | 4.3 | 0.00 | 0.00 | 0.00 | 80 | 1029.0 |
| 20260503170637 | 53 | 101 | 3.5 | 4.3 | 0.00 | 0.00 | 0.00 | 81 | 1028.8 |
| 20260503170134 | 53 | 122 | 3.5 | 4.3 | 0.00 | 0.00 | 0.00 | 81 | 1028.9 |
| 20260503150526 | 55 | 132 | 4.3 | 6.1 | 0.00 | 0.00 | 0.00 | 75 | 1028.9 |
| 20260503131419 | 57 | 135 | 4.3 | 5.2 | 0.00 | 0.00 | 0.00 | 73 | 1028.6 |
| 20260503130915 | 58 | 140 | 4.3 | 6.1 | 0.00 | 0.00 | 0.00 | 73 | 1028.6 |
| 20260503130413 | 58 | 127 | 4.3 | 6.1 | 0.00 | 0.00 | 0.00 | 73 | 1028.6 |
| 20260503110817 | 60 | 147 | 5.2 | 7.0 | 0.00 | 0.00 | 0.00 | 68 | 1028.1 |
| 20260503110314 | 60 | 148 | 5.2 | 6.1 | 0.00 | 0.00 | 0.00 | 68 | 1027.9 |
| 20260503100240 | 63 | 142 | 3.5 | 4.3 | 0.00 | 0.00 | 0.00 | 63 | 1027.3 |
| 20260503090200 | 68 | 212 | 0.0 | 2.6 | 0.00 | 0.00 | 0.00 | 59 | 1026.9 |
| 20260503081636 | 68 | 226 | 6.1 | 7.0 | 0.00 | 0.00 | 0.00 | 59 | 1026.8 |
| 20260503081132 | 68 | 224 | 6.1 | 9.6 | 0.00 | 0.00 | 0.00 | 59 | 1026.9 |
| 20260503080628 | 68 | 238 | 1.7 | 7.8 | 0.00 | 0.00 | 0.00 | 62 | 1026.7 |
| 20260503080125 | 68 | 209 | 5.2 | 9.6 | 0.00 | 0.00 | 0.00 | 60 | 1026.8 |
| 20260503072602 | 68 | 220 | 7.0 | 11.3 | 0.00 | 0.00 | 0.00 | 61 | 1026.9 |
| 20260503072059 | 68 | 217 | 8.7 | 12.2 | 0.00 | 0.00 | 0.00 | 61 | 1026.9 |
| 20260503071556 | 68 | 224 | 7.0 | 11.3 | 0.00 | 0.00 | 0.00 | 62 | 1026.9 |
| 20260503071053 | 68 | 254 | 4.3 | 8.7 | 0.00 | 0.00 | 0.00 | 60 | 1026.8 |
| 20260503070549 | 68 | 236 | 6.1 | 9.6 | 0.00 | 0.00 | 0.00 | 61 | 1026.8 |
| 20260503055008 | 66 | 229 | 13.0 | 14.8 | 0.00 | 0.00 | 0.00 | 64 | 1027.2 |
| 20260503054504 | 67 | 206 | 7.0 | 12.2 | 0.00 | 0.00 | 0.00 | 62 | 1027.2 |
| 20260503054002 | 67 | 220 | 9.6 | 11.3 | 0.00 | 0.00 | 0.00 | 61 | 1027.1 |
| 20260503053500 | 68 | 238 | 7.8 | 10.4 | 0.00 | 0.00 | 0.00 | 59 | 1027.2 |
| 20260503052956 | 67 | 234 | 3.5 | 11.3 | 0.00 | 0.00 | 0.00 | 61 | 1027.4 |
| 20260503052454 | 68 | 212 | 6.1 | 9.6 | 0.00 | 0.00 | 0.00 | 59 | 1027.2 |
| 20260503051950 | 69 | 217 | 6.1 | 8.7 | 0.00 | 0.00 | 0.00 | 55 | 1027.4 |
| 20260503051446 | 68 | 145 | 0.9 | 5.2 | 0.00 | 0.00 | 0.00 | 57 | 1027.4 |
| 20260503050943 | 68 | 155 | 4.3 | 7.8 | 0.00 | 0.00 | 0.00 | 57 | 1027.4 |
| 20260503050439 | 69 | 102 | 3.5 | 6.1 | 0.00 | 0.00 | 0.00 | 56 | 1027.4 |
| 20260503045937 | 68 | 50 | 3.5 | 5.2 | 0.00 | 0.00 | 0.00 | 58 | 1027.5 |
| 20260503045434 | 67 | 123 | 4.3 | 5.2 | 0.00 | 0.00 | 0.00 | 58 | 1027.6 |
| 20260503044931 | 68 | 85 | 5.2 | 6.1 | 0.00 | 0.00 | 0.00 | 57 | 1027.7 |
| 20260503044427 | 68 | 64 | 2.6 | 6.1 | 0.00 | 0.00 | 0.00 | 59 | 1027.8 |
| 20260503043925 | 67 | 31 | 2.6 | 4.3 | 0.00 | 0.00 | 0.00 | 60 | 1027.9 |
| 20260503043421 | 66 | 81 | 3.5 | 6.1 | 0.00 | 0.00 | 0.00 | 61 | 1027.9 |
| 20260503042918 | 68 | 52 | 5.2 | 7.8 | 0.00 | 0.00 | 0.00 | 59 | 1027.9 |
| 20260503042415 | 66 | 92 | 1.7 | 6.1 | 0.00 | 0.00 | 0.00 | 61 | 1028.0 |
| 20260503041911 | 66 | 72 | 5.2 | 8.7 | 0.00 | 0.00 | 0.00 | 61 | 1028.3 |
| 20260503041408 | 66 | 21 | 3.5 | 7.0 | 0.00 | 0.00 | 0.00 | 62 | 1028.4 |
| 20260503040905 | 65 | 50 | 3.5 | 6.1 | 0.00 | 0.00 | 0.00 | 64 | 1028.3 |
| 20260503040403 | 65 | 81 | 6.1 | 8.7 | 0.00 | 0.00 | 0.00 | 64 | 1028.4 |
| 20260503035900 | 66 | 76 | 6.1 | 7.8 | 0.00 | 0.00 | 0.00 | 62 | 1028.6 |
| 20260503035356 | 64 | 101 | 2.6 | 5.2 | 0.00 | 0.00 | 0.00 | 65 | 1028.7 |
| 20260503034854 | 64 | 63 | 3.5 | 10.4 | 0.00 | 0.00 | 0.00 | 65 | 1028.7 |
| 20260503034351 | 64 | 77 | 4.3 | 8.7 | 0.00 | 0.00 | 0.00 | 65 | 1028.8 |
| 20260503033848 | 64 | 64 | 6.1 | 7.8 | 0.00 | 0.00 | 0.00 | 66 | 1028.6 |
| 20260503033346 | 63 | 92 | 4.3 | 7.8 | 0.00 | 0.00 | 0.00 | 67 | 1028.5 |
| 20260503032843 | 63 | 42 | 11.3 | 12.2 | 0.00 | 0.00 | 0.00 | 67 | 1028.8 |
| 20260503032342 | 64 | 80 | 7.8 | 9.6 | 0.00 | 0.00 | 0.00 | 67 | 1028.7 |
| 20260503031839 | 63 | 60 | 6.1 | 9.6 | 0.00 | 0.00 | 0.00 | 68 | 1028.9 |
| 20260503031337 | 63 | 98 | 7.8 | 11.3 | 0.00 | 0.00 | 0.00 | 68 | 1028.7 |
| 20260503030833 | 62 | 75 | 4.3 | 10.4 | 0.00 | 0.00 | 0.00 | 69 | 1028.6 |
| 20260503030330 | 62 | 91 | 9.6 | 10.4 | 0.00 | 0.00 | 0.00 | 69 | 1028.8 |
| 20260503025827 | 62 | 102 | 6.1 | 12.2 | 0.00 | 0.00 | 0.00 | 70 | 1028.8 |
| 20260503025324 | 62 | 68 | 5.2 | 9.6 | 0.00 | 0.00 | 0.00 | 71 | 1029.0 |
| 20260503024821 | 62 | 92 | 7.0 | 11.3 | 0.00 | 0.00 | 0.00 | 70 | 1029.0 |
| 20260503024317 | 62 | 97 | 6.1 | 9.6 | 0.00 | 0.00 | 0.00 | 70 | 1029.2 |
| 20260503023814 | 61 | 88 | 4.3 | 8.7 | 0.00 | 0.00 | 0.00 | 72 | 1029.1 |
| 20260503023312 | 61 | 97 | 9.6 | 12.2 | 0.00 | 0.00 | 0.00 | 71 | 1029.2 |
| 20260503022809 | 61 | 94 | 10.4 | 13.0 | 0.00 | 0.00 | 0.00 | 72 | 1029.1 |
| 20260503022308 | 60 | 93 | 7.0 | 11.3 | 0.00 | 0.00 | 0.00 | 73 | 1029.1 |
| 20260503021805 | 60 | 100 | 7.0 | 9.6 | 0.00 | 0.00 | 0.00 | 74 | 1029.3 |
| 20260503021301 | 60 | 86 | 7.0 | 12.2 | 0.00 | 0.00 | 0.00 | 75 | 1029.2 |
| 20260503020759 | 60 | 101 | 10.4 | 11.3 | 0.00 | 0.00 | 0.00 | 75 | 1029.3 |
| 20260503020256 | 59 | 112 | 6.1 | 12.2 | 0.00 | 0.00 | 0.00 | 76 | 1029.3 |
| 20260503015752 | 59 | 108 | 8.7 | 10.4 | 0.00 | 0.00 | 0.00 | 77 | 1029.2 |
| 20260503015249 | 59 | 84 | 7.0 | 12.2 | 0.00 | 0.00 | 0.00 | 77 | 1029.2 |
| 20260503014745 | 59 | 107 | 6.1 | 7.8 | 0.00 | 0.00 | 0.00 | 80 | 1029.3 |
| 20260503014243 | 58 | 98 | 7.8 | 12.2 | 0.00 | 0.00 | 0.00 | 80 | 1029.2 |
| 20260503013740 | 58 | 118 | 12.2 | 13.0 | 0.00 | 0.00 | 0.00 | 80 | 1029.4 |
| 20260503013238 | 58 | 153 | 7.0 | 10.4 | 0.00 | 0.00 | 0.00 | 80 | 1029.3 |
| 20260503012735 | 57 | 87 | 8.7 | 10.4 | 0.00 | 0.00 | 0.00 | 82 | 1029.5 |
| 20260503012232 | 57 | 122 | 9.6 | 13.0 | 0.00 | 0.00 | 0.00 | 82 | 1029.4 |
| 20260503011728 | 56 | 112 | 9.6 | 11.3 | 0.00 | 0.00 | 0.00 | 83 | 1029.5 |
| 20260503011226 | 56 | 116 | 5.2 | 11.3 | 0.00 | 0.00 | 0.00 | 84 | 1029.5 |
| 20260503010722 | 55 | 106 | 6.1 | 13.0 | 0.00 | 0.00 | 0.00 | 85 | 1029.3 |
| 20260503010219 | 55 | 95 | 5.2 | 8.7 | 0.00 | 0.00 | 0.00 | 86 | 1029.5 |
| 20260503005716 | 54 | 103 | 6.1 | 10.4 | 0.00 | 0.00 | 0.00 | 86 | 1029.5 |
| 20260503005213 | 54 | 120 | 7.8 | 9.6 | 0.00 | 0.00 | 0.00 | 87 | 1029.5 |
| 20260503004710 | 53 | 94 | 5.2 | 11.3 | 0.00 | 0.00 | 0.00 | 89 | 1029.4 |
| 20260503004208 | 53 | 121 | 7.8 | 10.4 | 0.00 | 0.00 | 0.00 | 89 | 1029.5 |
| 20260503003705 | 53 | 130 | 7.8 | 10.4 | 0.00 | 0.00 | 0.00 | 89 | 1029.3 |
| 20260503003202 | 52 | 105 | 7.8 | 11.3 | 0.00 | 0.00 | 0.00 | 90 | 1029.5 |
| 20260503002658 | 52 | 114 | 8.7 | 11.3 | 0.00 | 0.00 | 0.00 | 90 | 1029.5 |
| 20260503002155 | 51 | 121 | 3.5 | 8.7 | 0.00 | 0.00 | 0.00 | 91 | 1029.3 |
| 20260503001651 | 51 | 96 | 7.8 | 10.4 | 0.00 | 0.00 | 0.00 | 91 | 1029.3 |
| 20260503001148 | 50 | 103 | 4.3 | 6.1 | 0.00 | 0.00 | 0.00 | 92 | 1029.3 |
| 20260503000646 | 50 | 133 | 3.5 | 6.1 | 0.00 | 0.00 | 0.00 | 92 | 1029.4 |
| 20260503000143 | 49 | 117 | 7.8 | 8.7 | 0.00 | 0.00 | 0.00 | 92 | 1029.3 |
| 20260502235639 | 49 | 129 | 5.2 | 6.1 | 0.00 | 0.00 | 0.00 | 92 | 1029.3 |
| 20260502235138 | 48 | 142 | 1.7 | 4.3 | 0.00 | 0.00 | 0.00 | 93 | 1029.2 |
| 20260502234633 | 47 | 141 | 2.6 | 3.5 | 0.00 | 0.00 | 0.00 | 92 | 1029.0 |
| 20260502234131 | 48 | 154 | 2.6 | 2.6 | 0.00 | 0.00 | 0.00 | 93 | 1029.1 |
| 20260502233627 | 47 | 132 | 2.6 | 3.5 | 0.00 | 0.00 | 0.00 | 94 | 1028.8 |
| 20260502233124 | 47 | 110 | 2.6 | 4.3 | 0.00 | 0.00 | 0.00 | 94 | 1028.9 |
| 20260502232619 | 46 | 150 | 1.7 | 3.5 | 0.00 | 0.00 | 0.00 | 94 | 1028.7 |
| 20260502232117 | 45 | 107 | 2.6 | 2.6 | 0.00 | 0.00 | 0.00 | 94 | 1028.7 |
| 20260502231614 | 44 | 126 | 1.7 | 2.6 | 0.00 | 0.00 | 0.00 | 94 | 1028.6 |
| 20260502231112 | 44 | 141 | 2.6 | 2.6 | 0.00 | 0.00 | 0.00 | 94 | 1028.7 |
| 20260502230610 | 44 | 143 | 1.7 | 4.3 | 0.00 | 0.00 | 0.00 | 95 | 1028.5 |
| 20260502230108 | 43 | 109 | 3.5 | 3.5 | 0.00 | 0.00 | 0.00 | 95 | 1028.3 |
| 20260502225603 | 43 | 111 | 1.7 | 2.6 | 0.00 | 0.00 | 0.00 | 94 | 1028.3 |
| 20260502225100 | 43 | 112 | 2.6 | 2.6 | 0.00 | 0.00 | 0.00 | 94 | 1028.0 |
| 20260502224556 | 43 | 116 | 1.7 | 2.6 | 0.00 | 0.00 | 0.00 | 94 | 1028.1 |
| 20260502224054 | 43 | 133 | 1.7 | 2.6 | 0.00 | 0.00 | 0.00 | 94 | 1028.1 |
| 20260502223551 | 44 | 159 | 1.7 | 1.7 | 0.00 | 0.00 | 0.00 | 94 | 1028.1 |
| 20260502223050 | 44 | 119 | 1.7 | 2.6 | 0.00 | 0.00 | 0.00 | 94 | 1028.1 |
| 20260502222546 | 44 | 119 | 2.6 | 2.6 | 0.00 | 0.00 | 0.00 | 94 | 1028.1 |
| 20260502222043 | 45 | 109 | 2.6 | 2.6 | 0.00 | 0.00 | 0.00 | 94 | 1028.1 |
| 20260502221538 | 45 | 102 | 3.5 | 4.3 | 0.00 | 0.00 | 0.00 | 94 | 1028.1 |
| 20260502221036 | 45 | 100 | 2.6 | 4.3 | 0.02 | 0.00 | 0.00 | 94 | 1028.2 |
| 20260502220531 | 44 | 110 | 3.5 | 3.5 | 0.02 | 0.00 | 0.00 | 94 | 1028.0 |
| 20260502220029 | 44 | 102 | 2.6 | 4.3 | 0.00 | 0.00 | 0.00 | 94 | 1027.9 |
| 20260502215526 | 44 | 108 | 2.6 | 3.5 | 0.00 | 0.00 | 0.00 | 94 | 1027.9 |